Rotterdam, Netherlands

5:39 AM CEST on June 28, 2017 (GMT +0200)
Rotterdam

Weather History for EHRD - November, 2011

Change the Weather History Date:

Friday, November 4, 2011

  Actual Average Record
Temperature  
Mean Temperature 58 °F -  
Max Temperature 64 °F 47 °F 64 °F (2011)
Min Temperature 53 °F 38 °F 35 °F (1997)
Degree Days  
Heating Degree Days 6    
Growing Degree Days 8 (Base 50)    
Moisture  
Dew Point 50 °F    
Average Humidity 71    
Maximum Humidity 88    
Minimum Humidity 53    
Precipitation  
Precipitation 0.00 in - - ()
Sea Level Pressure  
Sea Level Pressure 29.52 in    
Wind  
Wind Speed 12 mph ()    
Max Wind Speed 21 mph    
Max Gust Speed 33 mph    
Visibility 6.4 miles    
Events      
Averages and records for this station are not official NWS values.
T = Trace of Precipitation, MM = Missing Value Source: Averaged Metar Reports

Daily Weather History Graph

Daily Weather History Graph

Search for Another Location

Airport or City:

Trip Planner

Search our weather history database for the weather conditions in past years. The results will help you decide how hot, cold, wet, or windy it might be!

Date:

Astronomy

Nov. 04, 2011 Rise Set
Actual Time 7:41 AM CET 5:09 PM CET
Civil Twilight 7:05 AM CET 5:45 PM CET
Nautical Twilight 6:25 AM CET 6:25 PM CET
Astronomical Twilight 5:46 AM CET 7:04 PM CET
Moon 2:31 PM CET (11/4) 12:55 AM CET (11/4)
Length of Visible Light 10h 39m
Length of Day
9h 27m
Waxing Gibbous, 67% of the Moon is Illuminated
Nov 4
Waxing Gibbous
Nov 10
Full
Nov 18
Last Quarter
Nov 25
New
Dec 2
First Quarter

Hourly Weather History & Observations

Time (CET) Temp. Dew Point Humidity Pressure Visibility Wind Dir Wind Speed Gust Speed Precip Events Conditions
12:25 AM 62.6 °F 50.0 °F 63% 29.44 in 6.2 mi SSE 9.2 mph - N/A   Partly Cloudy
12:55 AM 62.6 °F 50.0 °F 63% 29.42 in 6.2 mi SE 15.0 mph - N/A   Partly Cloudy
1:00 AM 62 °F 50 °F 55% 29.44 in 28 mi SE 11.2 mph - -   Overcast
1:25 AM 60.8 °F 50.0 °F 68% 29.42 in 6.2 mi ESE 11.5 mph - N/A   Drizzle
1:55 AM 60.8 °F 50.0 °F 68% 29.42 in 6.2 mi ESE 16.1 mph - N/A   Partly Cloudy
2:25 AM 60.8 °F 50.0 °F 68% 29.39 in 6.2 mi ESE 15.0 mph - N/A   Unknown
2:55 AM 60.8 °F 50.0 °F 68% 29.39 in 6.2 mi ESE 16.1 mph - N/A   Unknown
3:25 AM 60.8 °F 48.2 °F 63% 29.39 in 6.2 mi SE 16.1 mph - N/A   Unknown
3:55 AM 60.8 °F 48.2 °F 63% 29.39 in 6.2 mi SE 19.6 mph - N/A   Unknown
4:00 AM 61 °F 48 °F 53% 29.40 in 28 mi SE 17.9 mph - -   Overcast
4:25 AM 60.8 °F 48.2 °F 63% 29.39 in 6.2 mi SE 16.1 mph 27.6 mph N/A   Overcast
4:55 AM 60.8 °F 48.2 °F 63% 29.42 in 6.2 mi SSE 18.4 mph - N/A   Scattered Clouds
5:25 AM 59.0 °F 50.0 °F 72% 29.42 in 6.2 mi SSE 13.8 mph - N/A   Partly Cloudy
5:55 AM 59.0 °F 50.0 °F 72% 29.42 in 6.2 mi SSE 13.8 mph - N/A   Scattered Clouds
6:25 AM 59.0 °F 50.0 °F 72% 29.42 in 6.2 mi SSE 13.8 mph - N/A   Mostly Cloudy
6:55 AM 59.0 °F 50.0 °F 72% 29.42 in 6.2 mi SSE 13.8 mph - N/A   Mostly Cloudy
7:00 AM 59 °F 51 °F 66% 29.44 in 28 mi SSE 13.4 mph - -   Partly Cloudy
7:25 AM 59.0 °F 51.8 °F 77% 29.42 in 6.2 mi SSE 15.0 mph 27.6 mph N/A   Unknown
7:55 AM 59.0 °F 51.8 °F 77% 29.44 in 6.2 mi SSE 16.1 mph - N/A   Partly Cloudy
8:25 AM 57.2 °F 51.8 °F 82% 29.44 in 6.2 mi South 15.0 mph - N/A   Scattered Clouds
8:55 AM 59.0 °F 51.8 °F 77% 29.47 in 6.2 mi South 15.0 mph - N/A   Mostly Cloudy
9:25 AM 59.0 °F 51.8 °F 77% 29.47 in 6.2 mi South 18.4 mph - N/A   Overcast
9:55 AM 59.0 °F 51.8 °F 77% 29.50 in 6.2 mi South 20.7 mph - N/A   Unknown
10:00 AM 60 °F 52 °F 66% 29.51 in 25 mi South 20.1 mph - -   Scattered Clouds
10:25 AM 59.0 °F 51.8 °F 77% 29.50 in 6.2 mi SSW 17.3 mph 33.4 mph N/A   Unknown
10:55 AM 60.8 °F 51.8 °F 72% 29.53 in 6.2 mi South 17.3 mph 28.8 mph N/A   Unknown
11:25 AM 60.8 °F 51.8 °F 72% 29.53 in 6.2 mi SSW 16.1 mph - N/A   Unknown
11:55 AM 62.6 °F 51.8 °F 68% 29.53 in 6.2 mi South 18.4 mph - N/A   Unknown
12:25 PM 62.6 °F 51.8 °F 68% 29.50 in 6.2 mi South 15.0 mph - N/A   Unknown
12:55 PM 62.6 °F 51.8 °F 68% 29.53 in 6.2 mi South 18.4 mph - N/A   Partly Cloudy
1:00 PM 63 °F 52 °F 58% 29.56 in 18 mi South 17.9 mph - -  
1:25 PM 64.4 °F 51.8 °F 64% 29.53 in 6.2 mi South 16.1 mph 27.6 mph N/A   Partly Cloudy
1:55 PM 64.4 °F 51.8 °F 64% 29.53 in 6.2 mi South 13.8 mph - N/A   Unknown
2:25 PM 64.4 °F 51.8 °F 64% 29.53 in 6.2 mi South 13.8 mph - N/A   Unknown
2:55 PM 64.4 °F 50.0 °F 59% 29.56 in 6.2 mi South 13.8 mph - N/A   Unknown
3:25 PM 62.6 °F 50.0 °F 63% 29.56 in 6.2 mi South 13.8 mph - N/A   Unknown
3:55 PM 62.6 °F 50.0 °F 63% 29.56 in 6.2 mi South 10.4 mph - N/A   Unknown
4:00 PM 62 °F 50 °F 56% 29.58 in 28 mi South 6.7 mph - -   Overcast
4:25 PM 60.8 °F 50.0 °F 68% 29.56 in 6.2 mi South 6.9 mph - N/A   Unknown
4:55 PM 60.8 °F 50.0 °F 68% 29.56 in 6.2 mi SSE 6.9 mph - N/A   Unknown
5:25 PM 60.8 °F 50.0 °F 68% 29.59 in 6.2 mi SE 5.8 mph - N/A   Unknown
5:55 PM 59.0 °F 50.0 °F 72% 29.59 in 6.2 mi SSE 6.9 mph - N/A   Unknown
6:25 PM 57.2 °F 50.0 °F 77% 29.59 in 6.2 mi SSE 4.6 mph - N/A   Unknown
6:55 PM 55.4 °F 50.0 °F 82% 29.62 in 6.2 mi Variable 2.3 mph - N/A   Unknown
7:00 PM 53 °F 48 °F 79% 29.63 in 28 mi ESE 4.5 mph - -   Mostly Cloudy
7:25 PM 55.4 °F 50.0 °F 82% 29.62 in 6.2 mi East 6.9 mph - N/A   Unknown
7:55 PM 55.4 °F 50.0 °F 82% 29.62 in 6.2 mi ESE 6.9 mph - N/A   Unknown
8:25 PM 55.4 °F 50.0 °F 82% 29.62 in 6.2 mi ESE 4.6 mph - N/A   Unknown
8:55 PM 53.6 °F 50.0 °F 88% 29.62 in 6.2 mi ESE 4.6 mph - N/A   Unknown
9:25 PM 55.4 °F 50.0 °F 82% 29.65 in 6.2 mi SE 5.8 mph - N/A   Unknown
9:55 PM 53.6 °F 50.0 °F 88% 29.65 in 6.2 mi ESE 5.8 mph - N/A   Unknown
10:00 PM 55 °F 50 °F 78% 29.66 in 28 mi ESE 8.9 mph - -   Overcast
10:25 PM 55.4 °F 50.0 °F 82% 29.65 in 6.2 mi ESE 6.9 mph - N/A   Unknown
10:55 PM 55.4 °F 50.0 °F 82% 29.65 in 6.2 mi ESE 6.9 mph - N/A   Scattered Clouds
11:25 PM 55.4 °F 50.0 °F 82% 29.65 in 6.2 mi ESE 6.9 mph - N/A   Partly Cloudy
11:55 PM 55.4 °F 50.0 °F 82% 29.65 in 6.2 mi ESE 4.6 mph - N/A   Unknown